www.pogodaiklimat.ru

Погода и климат >> Архив погоды >> Франция >> Перпиньян


ПОГОДА в Перпиньяне

  • Прогноз погоды в Перпиньяне
  • Монитор погоды в Перпиньяне

АРХИВ ПОГОДЫ в Перпиньяне

Время (UTC), дата Ветер
(напр.,м/с)
 
Видим.   Явления Облачность Т
(С)
Тd
(С)
f
(%)
Тe
(С)
Тes
(С)
Комфортность P
(гПа)
Po
(гПа)
Тmin
(С)
Tmax
(С)
R
(мм)
R24
(мм)
S
(см)
16 11.09 СЗ 4 28 км н/о +24.2 +11.5 45 +26 +26 жарко 1023.7 1018.6
17 11.09 СЗ 4 40 км н/о +23.6 +11.0 45 +25 +25 комфорт 1023.5 1018.4
18 11.09 СЗ 7
{12}
60 км н/о +23.0 +10.8 46 +25 +25 комфорт 1024.2 1019.0 +16.0 +25.0 0
19 11.09 СЗ 3 60 км н/о +22.3 +11.1 49 +24 +24 комфорт 1025.3 1020.1
20 11.09 СЗ 3 60 км н/о +22.0 +11.1 50 +24 +24 комфорт 1025.7 1020.5
21 11.09 СЗ 9-15
{15}
60 км н/о +21.9 +10.7 49 +24 +24 комфорт 1025.7 1020.5 0
22 11.09 СЗ 4 60 км н/о +21.7 +10.2 48 +23 +23 комфорт 1025.7 1020.5
23 11.09 СЗ 3 60 км н/о +21.8 +9.7 46 +23 +23 комфорт 1026.2 1021.0
00 12.09 СЗ 8
{12}
60 км н/о +21.8 +9.3 45 +23 +23 комфорт 1026.2 1021.0 0
01 12.09 СЗ 3 60 км н/о +21.2 +9.1 46 +22 +22 комфорт 1026.2 1021.0
02 12.09 СЗ 4 60 км н/о +20.7 +9.0 47 +22 +22 комфорт 1026.1 1020.9
03 12.09 СЗ 8
{12}
60 км н/о +20.3 +8.9 48 +21 +21 комфорт 1026.2 1021.0 0
04 12.09 СЗ 5 55 км н/о +20.8 +8.4 45 +22 +22 комфорт 1026.1 1020.9
05 12.09 СЗ 4 60 км н/о +20.5 +8.2 45 +22 +22 комфорт 1026.5 1021.3
06 12.09 СЗ 7
{13}
45 км н/о +20.8 +7.8 43 +22 +22 комфорт 1026.7 1021.5 +20.2 +23.0 0
07 12.09 З 2 35 км н/о +22.7 +8.4 40 +24 +24 комфорт 1027.3 1022.1
08 12.09 СЗ 3 45 км н/о +24.3 +8.3 36 +25 +25 комфорт 1028.2 1023.0
09 12.09 СЗ 5
{10}
35 км н/о +26.1 +8.1 32 +26 +26 жарко 1029.0 1023.9 0
10 12.09 СЗ 4 45 км н/о +27.1 +7.0 28 +27 +27 жарко 1028.9 1023.8
11 12.09 С 3 40 км н/о +28.0 +7.3 27 +27 +27 жарко 1028.9 1023.8
12 12.09 С 6
{9}
50 км н/о +29.3 +6.6 24 +28 +28 жарко 1028.4 1023.3 0
13 12.09 С 2 50 км н/о +29.8 +5.8 22 +28 +28 жарко 1028.0 1022.9
14 12.09 С 2 50 км н/о +30.4 +7.6 24 +29 +29 жарко 1027.8 1022.7
15 12.09 С 3
{8}
50 км н/о +30.0 +6.6 23 +29 +29 жарко 1027.4 1022.3 0
16 12.09 С 2 40 км н/о +29.9 +7.1 24 +29 +29 жарко 1027.3 1022.2
17 12.09 С 2 50 км н/о +29.1 +5.8 23 +28 +28 жарко 1027.6 1022.5
18 12.09 СЗ 2
{5}
60 км н/о +25.9 +8.8 34 +26 +26 жарко 1027.9 1022.8 +20.8 +30.4 0
19 12.09 ЮВ 1 60 км н/о +23.7 +9.7 41 +25 +25 комфорт 1028.6 1023.4
20 12.09 З 1 60 км н/о +21.8 +10.3 48 +24 +24 комфорт 1028.6 1023.4
21 12.09 З 1
{5}
60 км н/о +20.5 +10.3 52 +23 +23 комфорт 1028.6 1023.4 0
22 12.09 З 1 60 км н/о +20.6 +10.7 53 +23 +23 комфорт 1028.7 1023.5
23 12.09 З 1 60 км н/о +18.9 +11.5 62 +21 +21 комфорт 1028.7 1023.5
00 13.09 З 3
{5}
60 км н/о +19.6 +10.6 56 +21 +21 комфорт 1028.8 1023.6 0
01 13.09 ЮЗ 1 60 км н/о +18.6 +10.7 60 +20 +20 1028.6 1023.3
02 13.09 З 1 60 км н/о +17.3 +11.1 67 +18 +18 1028.5 1023.2
03 13.09 З 1
{3}
60 км н/о +16.7 +10.8 68 +18 +18 1028.8 1023.5 0
04 13.09 СЗ 1 60 км н/о +16.4 +10.7 69 +18 +18 1028.3 1023.0
05 13.09 З 2 60 км н/о +17.3 +9.9 62 +18 +18 1029.0 1023.7
06 13.09 В 1
{3}
55 км н/о +16.6 +10.9 69 +18 +18 1028.7 1023.4 +16.0 +25.9 0
07 13.09 Ю 1 55 км н/о +20.0 +11.2 57 +23 +23 комфорт 1028.7 1023.5
08 13.09 С 1 19 км н/о +22.9 +11.9 50 +25 +25 комфорт 1029.1 1023.9
09 13.09 С 1
{3}
50 км н/о +26.2 +10.8 38 +27 +27 жарко 1028.8 1023.7 0
10 13.09 СВ 1 50 км н/о +27.9 +10.6 34 +28 +28 жарко 1029.2 1024.1
11 13.09 В 1 55 км н/о +27.8 +11.4 36 +29 +29 жарко 1029.1 1024.0
12 13.09 В 2
{6}
55 км н/о +27.9 +11.0 35 +29 +29 жарко 1029.4 1024.3 0
13 13.09 В 2 20 км н/о +28.3 +11.8 36 +29 +29 жарко 1028.3 1023.2
14 13.09 В 2 20 км н/о +26.3 +12.4 42 +28 +28 жарко 1027.7 1022.6
15 13.09 СВ 3
{6}
55 км н/о +24.1 +14.2 54 +27 +27 жарко 1026.8 1021.7 0
16 13.09 СВ 1 55 км 9/9
[]
+24.0 +14.1 54 +26 +27 жарко 1026.9 1021.8
17 13.09 СВ 1 60 км н/о +23.1 +14.9 60 +27 +27 душно 1026.7 1021.5
18 13.09 штиль 0
{3}
55 км н/о +21.8 +13.4 59 +25 +25 комфорт 1026.7 1021.5 +16.6 +28.7 0
19 13.09 СВ 1 35 км н/о +20.5 +15.3 72 +25 +25 комфорт 1027.1 1021.9
20 13.09 ЮЗ 1 40 км н/о +19.5 +15.4 77 +23 +23 комфорт 1027.7 1022.5
21 13.09 ЮЗ 1
{2}
35 км н/о +18.3 +15.0 81 +20 +20 1027.8 1022.6 0
22 13.09 З 1 35 км н/о +17.6 +14.9 84 +19 +19 1027.8 1022.5
23 13.09 З 2 45 км 9/9
[]
+18.4 +14.3 77 +20 +20 1027.5 1022.3
00 14.09 З 1
{4}
55 км 9/0
[]
+18.4 +14.3 77 +21 +21 комфорт 1027.1 1021.9 0
01 14.09 СЗ 1 55 км 9/9
[]
+18.3 +14.2 77 +20 +20 1026.4 1021.2
02 14.09 ЮЗ 1 55 км 10/10
[]
+18.6 +13.7 73 +21 +21 комфорт 1026.8 1021.6
03 14.09 С 1
{3}
50 км 9/0
[]
+18.3 +13.8 75 +20 +20 1026.3 1021.1 0
04 14.09 С 1 50 км 9/9
[]
+18.7 +14.2 75 +21 +21 комфорт 1025.7 1020.5
05 14.09 СЗ 2 26 км слаб. дождь 8/8 1500 м
[]
+18.6 +14.5 77 +20 +20 1025.9 1020.7 0.0
06 14.09 ЮЗ 3
{5}
35 км 9/9 1000 м
[]
+18.1 +15.4 84 +18 +18 1026.3 1021.1 +17.5 +21.8 0.0 0
07 14.09 СЗ 1 55 км н/о +18.9 +15.2 79 +22 +22 комфорт 1026.6 1021.4
08 14.09 З 1 50 км н/о +22.1 +14.0 60 +25 +25 комфорт 1026.5 1021.3
09 14.09 СВ 2
{3}
8000 м н/о +24.8 +14.6 53 +27 +27 жарко 1026.7 1021.6 0
10 14.09 В 2 55 км н/о +27.3 +12.9 41 +29 +29 жарко 1027.1 1022.0
11 14.09 В 2 60 км н/о +26.9 +14.3 46 +29 +29 жарко 1027.1 1022.0
12 14.09 В 4
{7}
55 км н/о +27.6 +14.9 46 +30 +30 жарко 1026.3 1021.2 0
13 14.09 В 2 50 км н/о +28.2 +15.1 45 +31 +31 душно 1025.7 1020.6
14 14.09 В 2 55 км н/о +28.2 +13.3 40 +30 +30 жарко 1025.0 1019.9
15 14.09 В 4
{6}
55 км н/о +27.1 +12.7 41 +29 +29 жарко 1024.6 1019.5 0
16 14.09 В 2 55 км 8/8
[]
+25.1 +13.6 49 +27 +28 жарко 1024.6 1019.5
17 14.09 В 2 30 км н/о +23.7 +16.0 62 +27 +27 жарко 1024.7 1019.6
18 14.09 СВ 2
{3}
28 км 9/9 600 м
[]
+22.1 +17.2 74 +27 +27 душно 1025.3 1020.1 +18.1 +28.5 0.0 0
19 14.09 С 1 18 км 9/9
[]
+21.2 +17.4 79 +25 +25 комфорт 1025.5 1020.3
20 14.09 СЗ 1 16 км 8/8
[]
+20.6 +16.8 79 +25 +25 комфорт 1025.5 1020.3
21 14.09 З 2
{2}
14 км н/о +19.3 +16.7 85 +22 +22 комфорт 1025.4 1020.2 0
22 14.09 З 1 15 км н/о +18.6 +16.7 89 +21 +21 комфорт 1025.2 1020.0
23 14.09 штиль 0 15 км н/о +18.0 +16.3 90 +18 +18 1024.9 1019.7
00 15.09 С 1
{3}
17 км н/о +17.5 +16.0 91 +19 +19 1025.2 1020.0 0
01 15.09 С 1 10 км н/о +17.5 +16.2 92 +19 +19 1024.3 1019.1
02 15.09 ЮЗ 1 22 км н/о +17.6 +15.8 89 +19 +19 1025.1 1019.9
03 15.09 СЗ 1
{3}
7000 м слаб. дождь 8/8 1500 м
[]
+18.3 +17.3 94 +20 +20 1024.1 1018.9 0.6 0
04 15.09 ЮЗ 1 6000 м 9/9
[]
+18.4 +17.4 94 +20 +20 1023.8 1018.6 0.0
05 15.09 С 1 3300 м дымка н/о +18.1 +17.5 96 +20 +20 1023.7 1018.5 0.2
06 15.09 ЮЗ 2
{4}
7000 м н/о +17.5 +16.9 96 +18 +18 1024.4 1019.2 +17.3 +22.1 0.2 0
07 15.09 С 1 10 км н/о +18.7 +17.7 94 +21 +21 комфорт 1024.2 1019.0
08 15.09 СВ 1 16 км н/о +21.5 +18.3 82 +26 +26 душно 1024.7 1019.5
09 15.09 В 1
{3}
19 км н/о +23.5 +18.4 73 +28 +28 душно 1024.5 1019.4 0
10 15.09 В 1 30 км н/о +24.8 +18.3 67 +29 +29 душно 1024.4 1019.3
11 15.09 В 2 35 км н/о +25.9 +17.3 59 +30 +30 душно 1023.8 1018.7
12 15.09 В 5
{7}
45 км н/о +26.0 +16.5 56 +30 +30 душно 1023.5 1018.4 0
13 15.09 В 3 40 км н/о +25.9 +15.9 54 +29 +29 душно 1022.9 1017.8
14 15.09 В 2 40 км н/о +25.5 +17.2 60 +29 +29 душно 1022.5 1017.4
15 15.09 В 5
{7}
35 км 8/8 1500 м
[]
+23.7 +17.2 67 +28 +28 душно 1022.0 1016.9 0
16 15.09 В 2 35 км н/о +24.5 +16.5 61 +28 +28 душно 1021.7 1016.6 0.0
17 15.09 СВ 2 35 км н/о +23.2 +17.0 68 +28 +28 душно 1021.5 1016.4
18 15.09 СВ 3
{5}
26 км н/о +21.7 +17.3 76 +26 +26 душно 1021.2 1016.1 +17.5 +26.4 0.0 0
19 15.09 С 1 24 км н/о +20.7 +17.3 81 +26 +26 душно 1021.4 1016.2
20 15.09 С 1 35 км н/о +20.3 +15.9 76 +24 +24 комфорт 1021.4 1016.2
21 15.09 СЗ 1
{2}
35 км н/о +19.6 +15.3 76 +23 +23 комфорт 1021.6 1016.4 0
22 15.09 СЗ 1 35 км н/о +18.8 +15.1 79 +21 +21 комфорт 1021.5 1016.3
23 15.09 З 1 27 км н/о +18.1 +15.9 87 +20 +20 1021.4 1016.2
00 16.09 З 2
{2}
21 км н/о +17.8 +16.1 90 +19 +19 1021.3 1016.1 0
01 16.09 штиль 0 21 км н/о +17.4 +15.9 91 +17 +17 1021.1 1015.9
02 16.09 З 1 21 км н/о +16.9 +15.6 92 +18 +18 1020.7 1015.5
03 16.09 З 2
{2}
23 км н/о +16.7 +15.2 91 +17 +17 1020.4 1015.2 0
04 16.09 ЮЗ 1 25 км н/о +16.7 +15.4 92 +18 +18 1020.2 1015.0
05 16.09 С 1 21 км н/о +16.5 +15.0 91 +18 +18 1020.3 1015.1
06 16.09 З 1
{2}
19 км н/о +16.4 +15.3 93 +17 +17 1020.4 1015.2 +16.3 +21.7 0
07 16.09 З 1 21 км н/о +18.6 +16.7 89 +21 +21 комфорт 1020.5 1015.3
08 16.09 З 1 35 км н/о +21.9 +16.8 73 +26 +26 душно 1020.5 1015.4
09 16.09 С 1
{2}
40 км н/о +24.1 +15.6 59 +27 +27 жарко 1020.5 1015.4 0
10 16.09 СВ 1 55 км н/о +26.3 +15.7 52 +29 +29 жарко 1020.2 1015.1
11 16.09 В 2 30 км н/о +26.9 +17.7 57 +31 +31 душно 1019.7 1014.6
12 16.09 В 4
{6}
50 км н/о +27.8 +15.8 48 +31 +31 душно 1019.1 1014.1 0
13 16.09 ЮВ 2 45 км н/о +27.1 +14.8 47 +30 +30 душно 1018.4 1013.4
14 16.09 В 2 50 км н/о +26.7 +16.3 53 +30 +30 душно 1017.8 1012.8
15 16.09 В 4
{6}
40 км н/о +26.0 +16.8 57 +30 +30 душно 1017.6 1012.5 0
16 16.09 СВ 2 40 км н/о +25.2 +16.6 59 +29 +29 душно 1017.3 1012.2
17 16.09 СВ 2 45 км н/о +24.3 +17.3 65 +28 +28 душно 1017.3 1012.2
18 16.09 В 2
{3}
35 км н/о +22.6 +17.7 74 +28 +28 душно 1017.4 1012.3 +16.4 +28.0 0
19 16.09 СВ 1 24 км н/о +21.8 +18.0 79 +26 +26 душно 1017.7 1012.6
20 16.09 СВ 1 16 км н/о +20.8 +18.2 85 +26 +26 душно 1017.9 1012.8
21 16.09 СВ 1
{2}
8000 м н/о +20.3 +18.6 90 +25 +25 комфорт 1018.0 1012.8 0
22 16.09 З 1 16 км н/о +19.4 +17.9 91 +23 +23 комфорт 1018.0 1012.8
23 16.09 ЮЗ 1 16 км 9/9
[]
+19.6 +18.1 91 +24 +24 комфорт 1017.9 1012.7
00 17.09 З 1
{2}
15 км н/о +19.3 +17.8 91 +22 +22 комфорт 1017.6 1012.4 0
01 17.09 ЮЗ 2 28 км н/о +20.1 +17.3 84 +24 +24 комфорт 1017.2 1012.0
02 17.09 З 2 27 км н/о +20.6 +17.0 80 +25 +25 комфорт 1016.5 1011.4
03 17.09 ЮЗ 3
{5}
35 км н/о +20.7 +16.7 78 +24 +24 комфорт 1016.1 1011.0 0
04 17.09 ЮЗ 2 30 км н/о +20.1 +16.7 81 +24 +24 комфорт 1016.1 1010.9
05 17.09 штиль 0 30 км н/о +19.9 +16.5 81 +22 +22 комфорт 1016.1 1010.9
06 17.09 С 1
{2}
35 км н/о +20.0 +16.4 80 +24 +24 комфорт 1016.4 1011.2 +19.2 +22.6 0
07 17.09 С 1 29 км н/о +22.3 +17.7 75 +27 +27 душно 1016.6 1011.5
08 17.09 СВ 1 40 км н/о +25.2 +17.9 64 +30 +30 душно 1017.0 1011.9
09 17.09 В 1
{2}
35 км н/о +27.7 +17.8 55 +32 +32 очень
душно
1017.0 1012.0 0
10 17.09 В 1 40 км н/о +28.7 +18.2 53 +33 +33 очень
душно
1016.7 1011.7
11 17.09 В 2 19 км н/о +29.1 +18.2 52 +34 +34 очень
душно
1016.2 1011.2
12 17.09 В 3
{6}
60 км н/о +29.6 +17.4 48 +34 +34 очень
душно
1015.8 1010.8 0
13 17.09 В 1 40 км н/о +30.6 +16.2 42 +34 +34 очень
душно
1015.3 1010.3
14 17.09 В 2 50 км н/о +30.7 +15.9 41 +34 +34 очень
душно
1014.7 1009.7
15 17.09 В 3
{5}
50 км н/о +30.4 +15.3 40 +33 +33 душно 1014.1 1009.1 0
16 17.09 В 1 50 км н/о +29.6 +15.7 43 +32 +32 душно 1013.7 1008.7
17 17.09 ЮВ 1 50 км н/о +27.5 +16.5 51 +31 +31 душно 1013.5 1008.5
18 17.09 ЮВ 1
{2}
40 км н/о +26.1 +16.6 56 +30 +30 душно 1013.3 1008.3 +20.0 +31.0 0
19 17.09 С 1 30 км н/о +23.9 +16.9 65 +28 +28 душно 1013.6 1008.5
20 17.09 З 2 35 км н/о +22.4 +17.3 73 +27 +27 душно 1013.8 1008.7
21 17.09 З 3
{5}
40 км н/о +22.8 +16.3 67 +27 +27 душно 1013.9 1008.8 0
22 17.09 З 2 40 км н/о +23.1 +16.9 68 +28 +28 душно 1014.1 1009.0
23 17.09 ЮЗ 2 40 км н/о +23.1 +16.2 65 +28 +28 душно 1013.9 1008.8
00 18.09 СЗ 1
{4}
45 км н/о +23.7 +16.5 64 +27 +27 жарко 1014.0 1008.9 0
01 18.09 В 1 25 км н/о +21.6 +18.2 81 +26 +26 душно 1014.2 1009.1
02 18.09 В 1 16 км н/о +20.8 +18.9 89 +26 +26 душно 1014.0 1008.9
03 18.09 З 2
{3}
14 км н/о +20.1 +18.6 91 +24 +24 комфорт 1014.4 1009.3 0
04 18.09 З 1 19 км н/о +19.9 +18.4 91 +24 +24 комфорт 1014.1 1009.0
05 18.09 З 2 20 км н/о +19.8 +17.9 89 +23 +23 комфорт 1014.6 1009.5
06 18.09 З 2
{4}
22 км н/о +19.6 +17.4 87 +23 +23 комфорт 1014.9 1009.7 +19.6 +26.1 0
07 18.09 ЮЗ 1 24 км н/о +20.9 +17.7 82 +26 +26 душно 1015.2 1010.1
08 18.09 ЮЗ 1 30 км н/о +24.4 +17.1 64 +28 +28 душно 1015.6 1010.5
09 18.09 В 2
{3}
40 км н/о +27.2 +13.9 44 +29 +29 жарко 1015.8 1010.8 0
10 18.09 ЮВ 1 50 км н/о +28.2 +13.7 41 +30 +30 жарко 1015.9 1010.9
11 18.09 В 2 60 км н/о +28.4 +13.1 39 +30 +30 жарко 1015.8 1010.8
12 18.09 ЮВ 3
{6}
60 км н/о +29.1 +12.5 36 +30 +30 жарко 1015.4 1010.4 0
13 18.09 ЮВ 2 60 км н/о +29.2 +13.0 37 +31 +31 жарко 1015.2 1010.2
14 18.09 ЮВ 2 55 км н/о +28.1 +12.4 38 +29 +29 жарко 1015.0 1010.0
15 18.09 В 3
{6}
50 км н/о +27.1 +14.1 45 +29 +29 жарко 1014.6 1009.6 0
16 18.09 Ю 1 60 км 8/8
[]
+26.6 +13.7 45 +29 +29 жарко 1014.9 1009.9

 

Местоположение метеостанции Перпиньян (Франция): широта 42.73 долгота 2.87 высота над уровнем моря 47 м.

В архиве по умолчанию представлена погода в Перпиньяне за последнюю неделю. Архивные данные за месяц целиком и за предыдущие месяцы, начиная с января 2011 года, Вы можете получить, выбрав интересующий диапазон дат из раскрывающегося списка и нажав кнопку "Ввод!".


*Определитесь, кто Вы:
робот инопланетянин человек

Внимание! Время в таблицах - всемирное. Для получения местного времени необходимо прибавить поправку, которая равна 1 ч.

Смотрите также архив погоды в соседних городах и на ближайших метеорологических станциях:

Погода в Лёкате (Франция) (27 км)
Погода на Мысе Беар (Франция) (32 км)
Погода в Каркассоне (Франция) (71 км)
Погода в Поркересе (Испания) (71 км)
Погода в Сете (Франция) (76 км)
Погода в Безье (Франция) (76 км)
Погода в Риполе (Испания) (81 км)
Погода в Ла-Молине (Испания) (88 км)
Погода в Жероне (Испания) (93 км)
Погода в Санта-Сусанне (Испания) (121 км)

Пояснения к столбцам:

Ветер - указаны скорость ветра в м/с - средняя за 10 мин, порывы в срок и между сроками (в фигурных скобках) и направление, откуда дует ветер: С - северный, СВ - северо-восточный, В - восточный, ЮВ - юго-восточный, Ю - южный, ЮЗ - юго-западный, З - западный, СЗ - северо-западный.
Видимость - горизонтальная дальность видимости в метрах или километрах. При видимости от 1 до 10 км при отсутствии осадков обычно наблюдается дымка, при ухудшении видимости до 1 км и менее - туман. В сухую погоду видимость может ухудшаться дымом, пылью или мглою.
Явления - указаны атмосферные явления, наблюдавшиеся в срок или в последний час перед сроком; фигурными скобками обозначены явления, наблюдавшиеся между сроками (за 1-3 часа до срока); квадратными скобками обозначены град или гололедные отложения с указанием их диаметра в мм.
Облачность - указаны через наклонную черту общая и нижняя облачность в баллах и высота нижней границы облаков в метрах; квадратными скобками обозначены формы облаков: Ci - перистые, Cs - перисто-слоистые, Cc - перисто-кучевые, Ac - высококучевые, As - высокослоистые, Sc - слоисто-кучевые, Ns - слоисто-дождевые, Cu - кучевые, Cb - кучево-дождевые. Подробнее классификацию облаков см. в Атласе облаков (PDF).
T - Температура воздуха - температура, измеренная на высоте 2 м над землей.
Td - Температура точки росы - температура, при понижении до которой содержащийся в воздухе водяной пар достигнет насыщения.
f - Относительная влажность воздуха - влажноcть воздуха, измеренная на высоте 2 м над землей.
Te - Эффективная температура - температура, которую ощущает одетый по сезону человек в тени. Характеристика душности погоды. При расчете учитывается влияние влажности воздуха и скорости ветра на теплоощущения человека.
Tes - Эффективная температура на солнце - температура, которую ощущает человек, с поправкой на солнечный нагрев. Характеристика знойности погоды. Зависит от высоты солнца над горизонтом, облачности и скорости ветра. Ночью, в пасмурную погоду, а также при ветре 12 м/с и более поправка равна нулю.
P - Атмосферное давление - приведенное к уровню моря атмосферное давление.
Po - Атмосферное давление - измеренное на уровне метеостанции атмосферное давление.
Tmin - Минимальная температура - минимум температуры воздуха на высоте 2 м над землей.
Tmax - Максимальная температура - максимум температуры воздуха на высоте 2 м над землей.
R - Количество осадков - Количество выпавших осадков за период времени, мм. При наведении курсора мыши на число - период времени, за который выпало указанное количество осадков.
R24 - Количество осадков - Количество выпавших осадков за 24 часа, мм.
S - Снежный покров - Высота снежного покрова, см. При наведении курсора мыши на число - состояние снежного покрова и степень покрытия местности в баллах.